Terminal Aerodrome Forecast
Issued by NWS

Home | Current Version | Previous Version | Text Only | Print | Product List | Glossary On
Versions: 1 2 3 4 5 6 7 8 9 10 11 12 13 14 15 16 17 18 19 20 21 22 23 24 25 26 27 28 29 30 31 32 33 34 35 36 37 38 39 40 41 42 43 44 45 46 47 48 49 50
251
FTAK31 PANC 171742
TAFASD
TAF
PASD 171742Z 1718/1818 05012G22KT P6SM -SHRA BKN015 OVC030
     FM180000 36018G26KT P6SM BKN030
     FM180300 33018G24KT P6SM FEW030
      AMD LTD TO CLD VIS AND WIND=

USA.gov is the U.S. government's official web portal to all federal, state and local government web resources and services.